Weather Roundup
Issued by NWS Chicago, IL

Home | Current Version | Previous Version | Graphics & Text | Print | Product List | Glossary On
Versions: 1 2 3 4 5 6 7 8 9 10 11 12 13 14 15 16 17 18 19 20 21 22 23 24 25 26 27 28 29 30 31 32 33 34 35 36 37 38 39 40 41 42 43 44 45 46 47 48 49 50
000
NZUS59 KLOT 191208
HRRLOT

CHICAGO AREA WEATHER ROUNDUP
NATIONAL WEATHER SERVICE CHICAGO/ROMEOVILLE IL
700 AM CDT THU APR 19 2018

NOTE: "FAIR" INDICATES FEW OR NO CLOUDS BELOW 12,000 FEET WITH NO
SIGNIFICANT WEATHER AND/OR OBSTRUCTIONS TO VISIBILITY.

* THESE STATIONS ARE NOT UNDER NWS QUALITY CONTROL. THEY ALSO MAY NOT
  REPORT WEATHER SUCH AS PRECIPITATION OR FOG.

ILZ005-006-012>014-019>023-191300-
NORTHEAST ILLINOIS

CITY           SKY/WX    TMP DP  RH WIND       PRES   REMARKS
OHARE            N/A     33  28  81 N10       30.19R WCI  25
6HR MIN TEMP:  31; 6HR MAX TEMP:  34;

MIDWAY           N/A     35  31  85 N13       30.20R WCI  26
6HR MIN TEMP:  33; 6HR MAX TEMP:  36; 6HR PCP:  0.03;

AURORA           N/A     29  26  89 N12       30.21R WCI  19
6HR MIN TEMP:  28; 6HR MAX TEMP:  35; 6HR PCP:  0.01;

LANSING*         N/A     35  34  94 N8        30.19R WCI  29
JOLIET*          N/A     33  32  95 N5        30.21R WCI  29
WAUKEGAN         N/A     31  24  75 NW8       30.20R WCI  23
6HR MIN TEMP:  31; 6HR MAX TEMP:  35; 6HR PCP: TRACE;

DUPAGE AIRPORT   N/A     31  27  85 N10       30.20R WCI  22
6HR MIN TEMP:  31; 6HR MAX TEMP:  34; 6HR PCP: TRACE;

WHEELING         N/A     34  27  75 N8        30.22R WCI  27
6HR MIN TEMP:  33; 6HR MAX TEMP:  36; 6HR PCP:  0.09;

KANKAKEE*      CLOUDY    35  33  90 N9        30.20R WCI  28
MORRIS*          N/A     31  28  88 N6        30.21R WCI  25
LEWIS AIRPORT*   N/A     32  30  92 N8        30.21R WCI  25
NORTHERLY ISL    N/A     36  30  79 NW18        N/A
$$

WIZ051-052-058>065-066-070>072-191300-
SOUTHEAST WISCONSIN

CITY           SKY/WX    TMP DP  RH WIND       PRES   REMARKS
MILWAUKEE        N/A     32  22  66 NW9       30.22R WCI  24
6HR MIN TEMP:  31; 6HR MAX TEMP:  36;

KENOSHA*         N/A     31  21  66 NW9       30.21R WCI  23
RACINE*          N/A     32  23  69 N10       30.23R WCI  24
BURLINGTON       N/A     28  21  77 NW5       30.23R WCI  22
WAUKESHA       CLEAR     25  19  80 NW6       30.23R WCI  18
WEST BEND        N/A     28  23  80 NW7       30.23R WCI  21
$$

INZ001>003-010>013-019-020-191300-
NORTHWEST INDIANA

CITY           SKY/WX    TMP DP  RH WIND       PRES   REMARKS
GARY*          PTCLDY    37  34  87 N17       30.18R
MICHIGAN CITY* NOT AVBL
RENSSELAER*    NOT AVBL
VALPARAISO       N/A     37  33  85 N8        30.16R
$$

LMZ740>746-191300-
SOUTHERN LAKE MICHIGAN

STATION/POSITION TIME  SKY/WX   TEMP WIND        PRES    VSBY
                                AIR  DIR/SP/G
                 (UTC)          (F)  (DEG/KT/KT) (MB)    (MI)
HARRISON CRIB    1140            37  340/ 20/ 23   N/A
BURNHAM HARBOR   1200            36  320/ 13/ 17   N/A
CALUMET HARBOR   1148            36  330/ 14/ 20 1021.6R
BURNS HARBOR     1140            38  360/ 15/ 19 1021.7R
MICHIGAN CITY    1140            37  340/ 19/ 21   N/A
$$

ABBREVIATIONS USED IN REMARKS
   TC - TEMPERATURE IN CELSIUS
  WCI - WIND CHILL INDEX
   HX - HEAT INDEX
  VSB - VISIBILITY
$$



USA.gov is the U.S. government's official web portal to all federal, state and local government web resources and services.